Time,TemperatureF,DewpointF,PressureIn,WindDirection,WindDirectionDegrees,WindSpeedMPH,WindSpeedGustMPH,Humidity,HourlyPrecipIn,Conditions,Clouds,dailyrainin,SoftwareType,DateUTC
2013-03-30 00:00:00,46.9,31.1,30.12,SW,224,1.0,4.0,54,0.00,,,0.00,meteohub,2013-03-30 04:00:00,
2013-03-30 00:02:00,46.9,31.1,30.11,SW,224,1.0,4.0,54,0.00,,,0.00,meteohub,2013-03-30 04:02:00,
2013-03-30 00:03:00,46.9,31.1,30.11,SW,217,1.0,4.0,54,0.00,,,0.00,meteohub,2013-03-30 04:03:00,
2013-03-30 00:08:00,46.8,30.9,30.11,SW,224,2.0,4.0,54,0.00,,,0.00,meteohub,2013-03-30 04:08:00,
2013-03-30 00:13:00,46.6,31.3,30.11,SW,221,0.0,4.0,55,0.00,,,0.00,meteohub,2013-03-30 04:13:00,
2013-03-30 00:18:00,46.4,31.1,30.11,SW,217,2.0,4.0,55,0.00,,,0.00,meteohub,2013-03-30 04:18:00,
2013-03-30 00:24:00,46.0,31.3,30.12,SW,225,1.0,4.0,56,0.00,,,0.00,meteohub,2013-03-30 04:24:00,
2013-03-30 00:29:00,46.0,31.3,30.12,SW,215,0.0,4.0,56,0.00,,,0.00,meteohub,2013-03-30 04:29:00,
2013-03-30 00:34:00,45.7,30.9,30.12,SW,217,0.0,4.0,56,0.00,,,0.00,meteohub,2013-03-30 04:34:00,
2013-03-30 00:40:00,45.7,31.3,30.12,SW,224,0.0,2.0,57,0.00,,,0.00,meteohub,2013-03-30 04:40:00,
2013-03-30 00:45:00,45.5,31.1,30.12,SW,224,0.0,2.0,57,0.00,,,0.00,meteohub,2013-03-30 04:45:00,
2013-03-30 00:50:00,45.1,31.3,30.12,SW,224,0.0,2.0,58,0.00,,,0.00,meteohub,2013-03-30 04:50:00,
2013-03-30 00:56:00,45.1,31.3,30.12,SW,215,0.0,2.0,58,0.00,,,0.00,meteohub,2013-03-30 04:56:00,
2013-03-30 01:02:00,45.0,31.1,30.12,SW,215,0.0,2.0,58,0.00,,,0.00,meteohub,2013-03-30 05:02:00,
2013-03-30 01:07:00,45.0,31.1,30.12,SW,215,0.0,2.0,58,0.00,,,0.00,meteohub,2013-03-30 05:07:00,
2013-03-30 01:12:00,44.8,30.9,30.12,SW,215,0.0,2.0,58,0.00,,,0.00,meteohub,2013-03-30 05:12:00,
2013-03-30 01:17:00,44.8,31.3,30.12,SW,215,0.0,1.0,59,0.00,,,0.00,meteohub,2013-03-30 05:17:00,
2013-03-30 01:22:00,44.4,30.9,30.12,SW,215,0.0,1.0,59,0.00,,,0.00,meteohub,2013-03-30 05:22:00,
2013-03-30 01:27:00,44.2,31.3,30.12,SW,215,0.0,1.0,60,0.00,,,0.00,meteohub,2013-03-30 05:27:00,
2013-03-30 01:32:00,44.1,31.1,30.12,SW,215,0.0,1.0,60,0.00,,,0.00,meteohub,2013-03-30 05:32:00,
2013-03-30 01:37:00,43.9,31.3,30.12,SW,215,0.0,1.0,61,0.00,,,0.00,meteohub,2013-03-30 05:37:00,
2013-03-30 01:42:00,43.7,31.1,30.12,SW,215,0.0,1.0,61,0.00,,,0.00,meteohub,2013-03-30 05:42:00,
2013-03-30 01:47:00,43.5,30.9,30.12,SW,215,0.0,1.0,61,0.00,,,0.00,meteohub,2013-03-30 05:47:00,
2013-03-30 01:52:00,43.3,31.3,30.12,SW,228,2.0,2.0,62,0.00,,,0.00,meteohub,2013-03-30 05:52:00,
2013-03-30 01:57:00,43.5,31.3,30.12,SW,218,1.0,0.0,62,0.00,,,0.00,meteohub,2013-03-30 05:57:00,
2013-03-30 02:02:00,43.7,31.5,30.12,SW,215,0.0,0.0,62,0.00,,,0.00,meteohub,2013-03-30 06:02:00,
2013-03-30 02:07:00,43.9,31.3,30.11,SSW,205,1.0,0.0,61,0.00,,,0.00,meteohub,2013-03-30 06:07:00,
2013-03-30 02:13:00,43.9,31.3,30.11,SSW,205,1.0,0.0,61,0.00,,,0.00,meteohub,2013-03-30 06:13:00,
2013-03-30 02:18:00,44.1,31.5,30.11,SSW,193,1.0,2.0,61,0.00,,,0.00,meteohub,2013-03-30 06:18:00,
2013-03-30 02:23:00,44.1,31.5,30.11,SSW,204,0.0,2.0,61,0.00,,,0.00,meteohub,2013-03-30 06:23:00,
2013-03-30 02:29:00,44.1,31.5,30.11,West,270,3.0,3.0,61,0.00,,,0.00,meteohub,2013-03-30 06:29:00,
2013-03-30 02:34:00,44.2,31.3,30.11,SW,219,1.0,3.0,60,0.00,,,0.00,meteohub,2013-03-30 06:34:00,
2013-03-30 02:39:00,44.2,31.6,30.11,SSW,211,0.0,3.0,61,0.00,,,0.00,meteohub,2013-03-30 06:39:00,
2013-03-30 02:45:00,44.2,31.6,30.11,WNW,283,2.0,3.0,61,0.00,,,0.00,meteohub,2013-03-30 06:45:00,
2013-03-30 02:50:00,44.2,31.6,30.11,SSW,198,1.0,3.0,61,0.00,,,0.00,meteohub,2013-03-30 06:50:00,
2013-03-30 02:55:00,44.1,31.5,30.11,SSW,194,1.0,3.0,61,0.00,,,0.00,meteohub,2013-03-30 06:55:00,
2013-03-30 03:00:00,43.9,31.6,30.11,SSW,201,0.0,3.0,62,0.00,,,0.00,meteohub,2013-03-30 07:00:00,
2013-03-30 03:06:00,43.9,31.6,30.11,SSW,210,0.0,3.0,62,0.00,,,0.00,meteohub,2013-03-30 07:06:00,
2013-03-30 03:12:00,43.7,32.0,30.11,SW,219,1.0,3.0,63,0.00,,,0.00,meteohub,2013-03-30 07:12:00,
2013-03-30 03:17:00,43.9,32.2,30.11,SW,219,0.0,2.0,63,0.00,,,0.00,meteohub,2013-03-30 07:17:00,
2013-03-30 03:22:00,43.9,32.2,30.11,SW,232,2.0,2.0,63,0.00,,,0.00,meteohub,2013-03-30 07:22:00,
2013-03-30 03:27:00,43.9,32.2,30.11,SSW,211,0.0,2.0,63,0.00,,,0.00,meteohub,2013-03-30 07:27:00,
2013-03-30 03:32:00,43.9,32.2,30.11,ESE,113,3.0,3.0,63,0.00,,,0.00,meteohub,2013-03-30 07:32:00,
2013-03-30 03:37:00,43.9,32.2,30.11,SSW,205,2.0,4.0,63,0.00,,,0.00,meteohub,2013-03-30 07:37:00,
2013-03-30 03:42:00,43.9,32.2,30.11,SW,221,0.0,4.0,63,0.00,,,0.00,meteohub,2013-03-30 07:42:00,
2013-03-30 03:47:00,43.9,32.2,30.11,SW,224,0.0,4.0,63,0.00,,,0.00,meteohub,2013-03-30 07:47:00,
2013-03-30 03:52:00,43.9,32.2,30.11,SW,224,0.0,4.0,63,0.00,,,0.00,meteohub,2013-03-30 07:52:00,
2013-03-30 03:57:00,43.9,32.2,30.11,SW,219,0.0,4.0,63,0.00,,,0.00,meteohub,2013-03-30 07:57:00,
2013-03-30 04:02:00,43.9,32.2,30.11,SW,219,0.0,4.0,63,0.00,,,0.00,meteohub,2013-03-30 08:02:00,
2013-03-30 04:07:00,43.9,32.2,30.11,SW,229,2.0,4.0,63,0.00,,,0.00,meteohub,2013-03-30 08:07:00,
2013-03-30 04:12:00,43.7,32.0,30.11,SW,219,1.0,4.0,63,0.00,,,0.00,meteohub,2013-03-30 08:12:00,
2013-03-30 04:17:00,43.9,32.2,30.11,SW,216,1.0,6.0,63,0.00,,,0.00,meteohub,2013-03-30 08:17:00,
2013-03-30 04:22:00,43.5,31.8,30.11,SSW,210,0.0,6.0,63,0.00,,,0.00,meteohub,2013-03-30 08:22:00,
2013-03-30 04:28:00,43.5,31.8,30.11,SSW,211,0.0,6.0,63,0.00,,,0.00,meteohub,2013-03-30 08:28:00,
2013-03-30 04:33:00,43.3,31.6,30.11,SW,224,0.0,6.0,63,0.00,,,0.00,meteohub,2013-03-30 08:33:00,
2013-03-30 04:38:00,43.3,31.6,30.11,SW,232,1.0,7.0,63,0.00,,,0.00,meteohub,2013-03-30 08:38:00,
2013-03-30 04:43:00,43.5,31.8,30.11,SSW,210,0.0,7.0,63,0.00,,,0.00,meteohub,2013-03-30 08:43:00,
2013-03-30 04:49:00,43.5,31.8,30.11,SW,225,2.0,7.0,63,0.00,,,0.00,meteohub,2013-03-30 08:49:00,
2013-03-30 04:54:00,43.3,31.6,30.11,SW,225,2.0,7.0,63,0.00,,,0.00,meteohub,2013-03-30 08:54:00,
2013-03-30 04:59:00,43.3,31.6,30.11,SW,219,1.0,7.0,63,0.00,,,0.00,meteohub,2013-03-30 08:59:00,
2013-03-30 05:04:00,43.3,31.6,30.11,SSW,212,0.0,5.0,63,0.00,,,0.00,meteohub,2013-03-30 09:04:00,
2013-03-30 05:10:00,43.2,31.5,30.12,SW,221,1.0,5.0,63,0.00,,,0.00,meteohub,2013-03-30 09:10:00,
2013-03-30 05:15:00,43.2,31.5,30.11,SW,217,0.0,5.0,63,0.00,,,0.00,meteohub,2013-03-30 09:15:00,
2013-03-30 05:20:00,43.2,31.8,30.11,SW,225,0.0,5.0,64,0.00,,,0.00,meteohub,2013-03-30 09:20:00,
2013-03-30 05:25:00,42.8,31.5,30.12,SW,222,3.0,5.0,64,0.00,,,0.00,meteohub,2013-03-30 09:25:00,
2013-03-30 05:31:00,42.8,31.5,30.12,SW,224,3.0,5.0,64,0.00,,,0.00,meteohub,2013-03-30 09:31:00,
2013-03-30 05:34:00,42.8,31.5,30.11,SW,217,0.0,4.0,64,0.00,,,0.00,meteohub,2013-03-30 09:34:00,
2013-03-30 05:39:00,42.6,31.3,30.12,SSW,212,0.0,4.0,64,0.00,,,0.00,meteohub,2013-03-30 09:39:00,
2013-03-30 05:44:00,42.6,31.6,30.12,SW,229,2.0,4.0,65,0.00,,,0.00,meteohub,2013-03-30 09:44:00,
2013-03-30 05:49:00,42.4,31.5,30.12,SW,215,0.0,4.0,65,0.00,,,0.00,meteohub,2013-03-30 09:49:00,
2013-03-30 05:55:00,42.4,31.5,30.12,SW,224,1.0,4.0,65,0.00,,,0.00,meteohub,2013-03-30 09:55:00,
2013-03-30 06:00:00,42.4,31.5,30.12,SW,224,0.0,4.0,65,0.00,,,0.00,meteohub,2013-03-30 10:00:00,
2013-03-30 06:05:00,42.3,31.3,30.12,SW,225,1.0,4.0,65,0.00,,,0.00,meteohub,2013-03-30 10:05:00,
2013-03-30 06:10:00,42.3,31.3,30.12,SW,219,0.0,4.0,65,0.00,,,0.00,meteohub,2013-03-30 10:10:00,
2013-03-30 06:16:00,42.1,31.1,30.12,SW,218,0.0,2.0,65,0.00,,,0.00,meteohub,2013-03-30 10:16:00,
2013-03-30 06:21:00,42.1,31.5,30.12,SW,218,0.0,2.0,66,0.00,,,0.00,meteohub,2013-03-30 10:21:00,
2013-03-30 06:27:00,42.1,31.5,30.12,SW,218,0.0,2.0,66,0.00,,,0.00,meteohub,2013-03-30 10:27:00,
2013-03-30 06:32:00,41.9,31.5,30.13,SW,218,0.0,2.0,66,0.00,,,0.00,meteohub,2013-03-30 10:32:00,
2013-03-30 06:37:00,41.7,31.3,30.13,SW,215,0.0,2.0,66,0.00,,,0.00,meteohub,2013-03-30 10:37:00,
2013-03-30 06:42:00,41.7,31.3,30.13,SW,215,1.0,2.0,66,0.00,,,0.00,meteohub,2013-03-30 10:42:00,
2013-03-30 06:47:00,41.7,31.3,30.13,SW,221,1.0,2.0,66,0.00,,,0.00,meteohub,2013-03-30 10:47:00,
2013-03-30 06:53:00,41.7,31.3,30.13,SW,219,0.0,2.0,66,0.00,,,0.00,meteohub,2013-03-30 10:53:00,
2013-03-30 06:58:00,41.7,31.3,30.13,SW,224,0.0,2.0,66,0.00,,,0.00,meteohub,2013-03-30 10:58:00,
2013-03-30 07:03:00,41.7,31.3,30.13,SW,214,1.0,2.0,66,0.00,,,0.00,meteohub,2013-03-30 11:03:00,
2013-03-30 07:08:00,41.9,31.5,30.13,SW,215,0.0,2.0,66,0.00,,,0.00,meteohub,2013-03-30 11:08:00,
2013-03-30 07:14:00,42.1,31.5,30.13,SSW,213,1.0,2.0,66,0.00,,,0.00,meteohub,2013-03-30 11:14:00,
2013-03-30 07:19:00,42.3,31.3,30.14,SW,219,1.0,2.0,65,0.00,,,0.00,meteohub,2013-03-30 11:19:00,
2013-03-30 07:24:00,42.6,31.3,30.14,SSW,203,0.0,2.0,64,0.00,,,0.00,meteohub,2013-03-30 11:24:00,
2013-03-30 07:30:00,43.0,31.3,30.14,SW,221,1.0,2.0,63,0.00,,,0.00,meteohub,2013-03-30 11:30:00,
2013-03-30 07:35:00,43.5,31.3,30.14,SW,224,1.0,2.0,62,0.00,,,0.00,meteohub,2013-03-30 11:35:00,
2013-03-30 07:40:00,43.9,31.6,30.14,SW,221,0.0,2.0,62,0.00,,,0.00,meteohub,2013-03-30 11:40:00,
2013-03-30 07:45:00,44.1,31.5,30.14,SW,225,1.0,2.0,61,0.00,,,0.00,meteohub,2013-03-30 11:45:00,
2013-03-30 07:50:00,44.4,31.5,30.14,WSW,242,2.0,2.0,60,0.00,,,0.00,meteohub,2013-03-30 11:50:00,
2013-03-30 07:55:00,44.8,31.3,30.14,SW,219,1.0,2.0,59,0.00,,,0.00,meteohub,2013-03-30 11:55:00,
2013-03-30 08:01:00,45.0,31.5,30.14,SW,219,0.0,2.0,59,0.00,,,0.00,meteohub,2013-03-30 12:01:00,
2013-03-30 08:06:00,45.1,31.6,30.14,WNW,287,3.0,3.0,59,0.00,,,0.00,meteohub,2013-03-30 12:06:00,
2013-03-30 08:12:00,45.3,31.5,30.15,WNW,283,3.0,3.0,58,0.00,,,0.00,meteohub,2013-03-30 12:12:00,
2013-03-30 08:17:00,45.3,31.5,30.14,SW,221,2.0,3.0,58,0.00,,,0.00,meteohub,2013-03-30 12:17:00,
2013-03-30 08:22:00,45.7,31.8,30.14,SSW,208,1.0,3.0,58,0.00,,,0.00,meteohub,2013-03-30 12:22:00,
2013-03-30 08:27:00,45.7,31.3,30.14,SW,225,2.0,3.0,57,0.00,,,0.00,meteohub,2013-03-30 12:27:00,
2013-03-30 08:32:00,46.0,31.6,30.14,SW,216,1.0,3.0,57,0.00,,,0.00,meteohub,2013-03-30 12:32:00,
2013-03-30 08:38:00,46.6,31.6,30.14,SW,218,1.0,3.0,56,0.00,,,0.00,meteohub,2013-03-30 12:38:00,
2013-03-30 08:43:00,47.1,31.8,30.15,WNW,283,3.0,5.0,55,0.00,,,0.00,meteohub,2013-03-30 12:43:00,
2013-03-30 08:48:00,47.5,32.2,30.14,SW,221,1.0,5.0,55,0.00,,,0.00,meteohub,2013-03-30 12:48:00,
2013-03-30 08:54:00,47.5,31.6,30.15,SW,229,2.0,5.0,54,0.00,,,0.00,meteohub,2013-03-30 12:54:00,
2013-03-30 08:59:00,47.3,32.0,30.15,SSW,194,0.0,5.0,55,0.00,,,0.00,meteohub,2013-03-30 12:59:00,
2013-03-30 09:04:00,47.1,31.8,30.15,NW,319,4.0,5.0,55,0.00,,,0.00,meteohub,2013-03-30 13:04:00,
2013-03-30 09:10:00,47.3,31.5,30.15,SW,221,1.0,5.0,54,0.00,,,0.00,meteohub,2013-03-30 13:10:00,
2013-03-30 09:15:00,47.3,31.5,30.15,SSW,212,0.0,6.0,54,0.00,,,0.00,meteohub,2013-03-30 13:15:00,
2013-03-30 09:20:00,47.5,31.6,30.15,SW,217,2.0,6.0,54,0.00,,,0.00,meteohub,2013-03-30 13:20:00,
2013-03-30 09:25:00,47.5,31.6,30.15,South,191,1.0,6.0,54,0.00,,,0.00,meteohub,2013-03-30 13:25:00,
2013-03-30 09:31:00,47.7,31.8,30.15,NNW,332,4.0,6.0,54,0.00,,,0.00,meteohub,2013-03-30 13:31:00,
2013-03-30 09:36:00,48.0,31.6,30.15,SW,214,3.0,6.0,53,0.00,,,0.00,meteohub,2013-03-30 13:36:00,
2013-03-30 09:41:00,48.2,31.8,30.15,SW,219,1.0,6.0,53,0.00,,,0.00,meteohub,2013-03-30 13:41:00,
2013-03-30 09:46:00,48.6,31.8,30.15,SW,221,1.0,5.0,52,0.00,,,0.00,meteohub,2013-03-30 13:46:00,
2013-03-30 09:52:00,48.7,31.8,30.15,SW,226,1.0,5.0,52,0.00,,,0.00,meteohub,2013-03-30 13:52:00,
2013-03-30 09:57:00,49.1,31.8,30.15,SW,221,1.0,5.0,51,0.00,,,0.00,meteohub,2013-03-30 13:57:00,
2013-03-30 10:02:00,49.3,32.0,30.15,SW,225,1.0,5.0,51,0.00,,,0.00,meteohub,2013-03-30 14:02:00,
2013-03-30 10:07:00,49.5,32.0,30.15,NNW,345,2.0,5.0,51,0.00,,,0.00,meteohub,2013-03-30 14:07:00,
2013-03-30 10:12:00,50.2,31.8,30.15,SW,219,2.0,5.0,49,0.00,,,0.00,meteohub,2013-03-30 14:12:00,
2013-03-30 10:17:00,50.7,31.8,30.15,SSW,212,1.0,5.0,48,0.00,,,0.00,meteohub,2013-03-30 14:17:00,
2013-03-30 10:22:00,51.4,32.4,30.15,ENE,63,5.0,5.0,48,0.00,,,0.00,meteohub,2013-03-30 14:22:00,
2013-03-30 10:27:00,52.2,32.0,30.15,SW,228,1.0,4.0,46,0.00,,,0.00,meteohub,2013-03-30 14:27:00,
2013-03-30 10:32:00,52.5,31.8,30.15,SW,222,1.0,4.0,45,0.00,,,0.00,meteohub,2013-03-30 14:32:00,
2013-03-30 10:37:00,53.2,30.7,30.15,SSW,212,1.0,4.0,42,0.00,,,0.00,meteohub,2013-03-30 14:37:00,
2013-03-30 10:42:00,53.4,31.5,30.15,SW,219,1.0,4.0,43,0.00,,,0.00,meteohub,2013-03-30 14:42:00,
2013-03-30 10:47:00,53.4,30.9,30.15,SW,219,2.0,4.0,42,0.00,,,0.00,meteohub,2013-03-30 14:47:00,
2013-03-30 10:52:00,53.4,31.5,30.14,SW,221,2.0,4.0,43,0.00,,,0.00,meteohub,2013-03-30 14:52:00,
2013-03-30 10:57:00,54.1,31.5,30.14,SW,225,2.0,5.0,42,0.00,,,0.00,meteohub,2013-03-30 14:57:00,
2013-03-30 11:02:00,54.5,30.7,30.14,SSE,162,2.0,5.0,40,0.00,,,0.00,meteohub,2013-03-30 15:02:00,
2013-03-30 11:07:00,54.3,29.8,30.14,SSW,205,1.0,5.0,39,0.00,,,0.00,meteohub,2013-03-30 15:07:00,
2013-03-30 11:12:00,54.5,30.0,30.14,WSW,248,3.0,5.0,39,0.00,,,0.00,meteohub,2013-03-30 15:12:00,
2013-03-30 11:17:00,54.9,29.7,30.14,SW,215,1.0,5.0,38,0.00,,,0.00,meteohub,2013-03-30 15:17:00,
2013-03-30 11:23:00,55.0,30.6,30.14,West,273,2.0,5.0,39,0.00,,,0.00,meteohub,2013-03-30 15:23:00,
2013-03-30 11:28:00,54.7,29.5,30.14,SSW,201,1.0,6.0,38,0.00,,,0.00,meteohub,2013-03-30 15:28:00,
2013-03-30 11:33:00,55.0,29.8,30.14,SW,235,2.0,6.0,38,0.00,,,0.00,meteohub,2013-03-30 15:33:00,
2013-03-30 11:39:00,55.0,28.6,30.13,SSW,208,0.0,6.0,36,0.00,,,0.00,meteohub,2013-03-30 15:39:00,
2013-03-30 11:44:00,54.3,27.9,30.13,SW,218,2.0,6.0,36,0.00,,,0.00,meteohub,2013-03-30 15:44:00,
2013-03-30 11:49:00,54.1,27.7,30.13,SW,225,2.0,6.0,36,0.00,,,0.00,meteohub,2013-03-30 15:49:00,
2013-03-30 11:55:00,54.3,27.9,30.13,WNW,283,3.0,6.0,36,0.00,,,0.00,meteohub,2013-03-30 15:55:00,
2013-03-30 12:00:00,54.3,28.6,30.13,SW,217,1.0,7.0,37,0.00,,,0.00,meteohub,2013-03-30 16:00:00,
2013-03-30 12:06:00,54.3,29.3,30.13,SW,224,1.0,7.0,38,0.00,,,0.00,meteohub,2013-03-30 16:06:00,
2013-03-30 12:11:00,55.4,30.2,30.12,South,191,2.0,7.0,38,0.00,,,0.00,meteohub,2013-03-30 16:11:00,
2013-03-30 12:17:00,55.9,29.3,30.12,SSW,212,2.0,7.0,36,0.00,,,0.00,meteohub,2013-03-30 16:17:00,
2013-03-30 12:22:00,56.1,29.5,30.12,SW,225,3.0,7.0,36,0.00,,,0.00,meteohub,2013-03-30 16:22:00,
2013-03-30 12:27:00,55.9,29.3,30.12,NE,41,4.0,7.0,36,0.00,,,0.00,meteohub,2013-03-30 16:27:00,
2013-03-30 12:32:00,56.3,29.7,30.12,SE,143,2.0,7.0,36,0.00,,,0.00,meteohub,2013-03-30 16:32:00,
2013-03-30 12:37:00,57.0,29.7,30.12,South,181,2.0,7.0,35,0.00,,,0.00,meteohub,2013-03-30 16:37:00,
2013-03-30 12:42:00,57.4,30.0,30.12,West,281,5.0,8.0,35,0.00,,,0.00,meteohub,2013-03-30 16:42:00,
2013-03-30 12:47:00,57.6,30.0,30.12,SW,234,2.0,8.0,35,0.00,,,0.00,meteohub,2013-03-30 16:47:00,
2013-03-30 12:52:00,57.4,29.3,30.12,SW,221,2.0,8.0,34,0.00,,,0.00,meteohub,2013-03-30 16:52:00,
2013-03-30 12:57:00,56.7,27.9,30.11,WSW,239,2.0,8.0,33,0.00,,,0.00,meteohub,2013-03-30 16:57:00,
2013-03-30 13:02:00,55.9,28.0,30.11,SW,235,2.0,8.0,34,0.00,,,0.00,meteohub,2013-03-30 17:02:00,
2013-03-30 13:07:00,56.3,28.2,30.11,SW,226,3.0,8.0,34,0.00,,,0.00,meteohub,2013-03-30 17:07:00,
2013-03-30 13:12:00,55.8,27.9,30.11,SW,229,2.0,8.0,34,0.00,,,0.00,meteohub,2013-03-30 17:12:00,
2013-03-30 13:17:00,56.7,28.6,30.10,WNW,290,2.0,8.0,34,0.00,,,0.00,meteohub,2013-03-30 17:17:00,
2013-03-30 13:22:00,57.4,27.7,30.10,SW,225,2.0,8.0,32,0.00,,,0.00,meteohub,2013-03-30 17:22:00,
2013-03-30 13:28:00,57.6,28.6,30.09,SW,226,2.0,8.0,33,0.00,,,0.00,meteohub,2013-03-30 17:28:00,
2013-03-30 13:34:00,57.6,27.9,30.09,SW,224,1.0,8.0,32,0.00,,,0.00,meteohub,2013-03-30 17:34:00,
2013-03-30 13:39:00,56.8,27.3,30.09,SW,224,2.0,8.0,32,0.00,,,0.00,meteohub,2013-03-30 17:39:00,
2013-03-30 13:45:00,57.4,27.7,30.09,NE,51,5.0,8.0,32,0.00,,,0.00,meteohub,2013-03-30 17:45:00,
2013-03-30 13:50:00,57.7,27.3,30.09,South,179,0.0,7.0,31,0.00,,,0.00,meteohub,2013-03-30 17:50:00,
2013-03-30 13:55:00,57.9,26.6,30.08,SW,233,3.0,7.0,30,0.00,,,0.00,meteohub,2013-03-30 17:55:00,
2013-03-30 14:01:00,58.1,26.8,30.08,SW,221,4.0,7.0,30,0.00,,,0.00,meteohub,2013-03-30 18:01:00,
2013-03-30 14:06:00,58.5,27.1,30.08,WSW,245,4.0,7.0,30,0.00,,,0.00,meteohub,2013-03-30 18:06:00,
2013-03-30 14:12:00,58.1,26.1,30.08,SW,221,1.0,7.0,29,0.00,,,0.00,meteohub,2013-03-30 18:12:00,
2013-03-30 14:17:00,58.8,25.7,30.08,SSE,162,2.0,7.0,28,0.00,,,0.00,meteohub,2013-03-30 18:17:00,
2013-03-30 14:22:00,58.3,24.4,30.07,SW,216,2.0,7.0,27,0.00,,,0.00,meteohub,2013-03-30 18:22:00,
2013-03-30 14:27:00,57.4,24.6,30.07,SW,221,2.0,7.0,28,0.00,,,0.00,meteohub,2013-03-30 18:27:00,
2013-03-30 14:32:00,56.8,25.0,30.07,SW,217,1.0,7.0,29,0.00,,,0.00,meteohub,2013-03-30 18:32:00,
2013-03-30 14:37:00,57.7,25.7,30.07,SW,214,0.0,7.0,29,0.00,,,0.00,meteohub,2013-03-30 18:37:00,
2013-03-30 14:42:00,59.2,25.2,30.07,SSW,208,3.0,7.0,27,0.00,,,0.00,meteohub,2013-03-30 18:42:00,
2013-03-30 14:47:00,59.5,24.6,30.07,NW,314,2.0,7.0,26,0.00,,,0.00,meteohub,2013-03-30 18:47:00,
2013-03-30 14:52:00,59.0,24.1,30.06,SW,225,1.0,6.0,26,0.00,,,0.00,meteohub,2013-03-30 18:52:00,
2013-03-30 14:57:00,58.6,23.9,30.06,WSW,242,2.0,6.0,26,0.00,,,0.00,meteohub,2013-03-30 18:57:00,
2013-03-30 15:02:00,59.5,23.7,30.06,NW,316,4.0,6.0,25,0.00,,,0.00,meteohub,2013-03-30 19:02:00,
2013-03-30 15:07:00,59.4,23.5,30.06,NW,312,5.0,6.0,25,0.00,,,0.00,meteohub,2013-03-30 19:07:00,
2013-03-30 15:12:00,59.2,24.3,30.06,West,276,3.0,6.0,26,0.00,,,0.00,meteohub,2013-03-30 19:12:00,
2013-03-30 15:17:00,58.5,22.8,30.06,East,82,4.0,8.0,25,0.00,,,0.00,meteohub,2013-03-30 19:17:00,
2013-03-30 15:23:00,58.5,22.8,30.06,SW,229,2.0,8.0,25,0.00,,,0.00,meteohub,2013-03-30 19:23:00,
2013-03-30 15:28:00,58.5,23.7,30.06,SW,225,2.0,8.0,26,0.00,,,0.00,meteohub,2013-03-30 19:28:00,
2013-03-30 15:33:00,58.3,23.5,30.06,NW,311,4.0,8.0,26,0.00,,,0.00,meteohub,2013-03-30 19:33:00,
2013-03-30 15:38:00,58.1,23.4,30.06,WSW,255,2.0,7.0,26,0.00,,,0.00,meteohub,2013-03-30 19:38:00,
2013-03-30 15:43:00,57.9,22.3,30.06,SSW,211,1.0,7.0,25,0.00,,,0.00,meteohub,2013-03-30 19:43:00,
2013-03-30 15:49:00,58.6,22.8,30.05,SW,214,2.0,7.0,25,0.00,,,0.00,meteohub,2013-03-30 19:49:00,
2013-03-30 15:54:00,59.0,22.3,30.05,SW,215,1.0,7.0,24,0.00,,,0.00,meteohub,2013-03-30 19:54:00,
2013-03-30 15:59:00,59.5,22.6,30.05,SW,215,2.0,6.0,24,0.00,,,0.00,meteohub,2013-03-30 19:59:00,
2013-03-30 16:05:00,60.3,23.4,30.05,SSE,162,2.0,6.0,24,0.00,,,0.00,meteohub,2013-03-30 20:05:00,
2013-03-30 16:10:00,61.3,23.2,30.05,WNW,300,3.0,6.0,23,0.00,,,0.00,meteohub,2013-03-30 20:10:00,
2013-03-30 16:15:00,61.9,23.7,30.05,NE,56,7.0,7.0,23,0.00,,,0.00,meteohub,2013-03-30 20:15:00,
2013-03-30 16:21:00,59.2,36.7,30.05,South,169,2.0,6.0,43,0.00,,,0.00,meteohub,2013-03-30 20:21:00,
2013-03-30 16:26:00,57.0,36.0,30.05,SSW,203,2.0,6.0,45,0.00,,,0.00,meteohub,2013-03-30 20:26:00,
2013-03-30 16:32:00,55.0,36.1,30.05,West,262,3.0,6.0,49,0.00,,,0.00,meteohub,2013-03-30 20:32:00,
2013-03-30 16:37:00,54.0,36.7,30.05,East,81,6.0,12.0,52,0.00,,,0.00,meteohub,2013-03-30 20:37:00,
2013-03-30 16:42:00,53.6,36.9,30.05,South,172,3.0,12.0,53,0.00,,,0.00,meteohub,2013-03-30 20:42:00,
2013-03-30 16:47:00,53.1,36.9,30.05,East,84,10.0,12.0,54,0.00,,,0.00,meteohub,2013-03-30 20:47:00,
2013-03-30 16:52:00,52.9,36.7,30.05,ESE,111,3.0,12.0,54,0.00,,,0.00,meteohub,2013-03-30 20:52:00,
2013-03-30 16:57:00,52.9,37.2,30.05,South,177,4.0,12.0,55,0.00,,,0.00,meteohub,2013-03-30 20:57:00,
2013-03-30 17:02:00,52.3,37.0,30.05,SSW,207,2.0,12.0,56,0.00,,,0.00,meteohub,2013-03-30 21:02:00,
2013-03-30 17:07:00,52.3,37.6,30.06,SSW,201,2.0,12.0,57,0.00,,,0.00,meteohub,2013-03-30 21:07:00,
2013-03-30 17:12:00,52.2,36.9,30.06,East,100,3.0,12.0,56,0.00,,,0.00,meteohub,2013-03-30 21:12:00,
2013-03-30 17:17:00,52.0,36.9,30.06,SE,136,3.0,12.0,56,0.00,,,0.00,meteohub,2013-03-30 21:17:00,
2013-03-30 17:22:00,51.3,36.5,30.06,ESE,104,7.0,14.0,57,0.00,,,0.00,meteohub,2013-03-30 21:22:00,
2013-03-30 17:27:00,51.4,35.4,30.06,East,96,8.0,14.0,54,0.00,,,0.00,meteohub,2013-03-30 21:27:00,
2013-03-30 17:32:00,51.4,34.9,30.06,SSE,148,2.0,14.0,53,0.00,,,0.00,meteohub,2013-03-30 21:32:00,
2013-03-30 17:38:00,51.4,36.3,30.06,ESE,122,9.0,12.0,56,0.00,,,0.00,meteohub,2013-03-30 21:38:00,
2013-03-30 17:43:00,51.1,36.9,30.06,SE,135,5.0,12.0,58,0.00,,,0.00,meteohub,2013-03-30 21:43:00,
2013-03-30 17:48:00,50.5,36.7,30.06,East,81,4.0,12.0,59,0.00,,,0.00,meteohub,2013-03-30 21:48:00,
2013-03-30 17:53:00,50.5,36.7,30.06,NE,43,5.0,12.0,59,0.00,,,0.00,meteohub,2013-03-30 21:53:00,
2013-03-30 17:59:00,50.5,36.0,30.06,South,174,2.0,12.0,57,0.00,,,0.00,meteohub,2013-03-30 21:59:00,
2013-03-30 18:04:00,50.5,36.7,30.06,SE,127,3.0,12.0,59,0.00,,,0.00,meteohub,2013-03-30 22:04:00,
2013-03-30 18:09:00,50.5,36.3,30.06,ESE,116,4.0,12.0,58,0.00,,,0.00,meteohub,2013-03-30 22:09:00,
2013-03-30 18:15:00,50.4,36.5,30.06,ESE,109,7.0,12.0,59,0.00,,,0.00,meteohub,2013-03-30 22:15:00,
2013-03-30 18:20:00,50.2,36.9,30.06,SSE,150,2.0,12.0,60,0.00,,,0.00,meteohub,2013-03-30 22:20:00,
2013-03-30 18:25:00,49.8,37.4,30.06,SE,143,2.0,9.0,62,0.00,,,0.00,meteohub,2013-03-30 22:25:00,
2013-03-30 18:31:00,49.3,37.6,30.06,SSE,162,2.0,9.0,64,0.00,,,0.00,meteohub,2013-03-30 22:31:00,
2013-03-30 18:36:00,48.9,37.2,30.06,SE,124,3.0,9.0,64,0.00,,,0.00,meteohub,2013-03-30 22:36:00,
2013-03-30 18:41:00,48.7,37.0,30.06,ESE,103,3.0,9.0,64,0.00,,,0.00,meteohub,2013-03-30 22:41:00,
2013-03-30 18:47:00,48.7,37.6,30.06,SE,134,2.0,9.0,65,0.00,,,0.00,meteohub,2013-03-30 22:47:00,
2013-03-30 18:52:00,48.7,37.9,30.07,SSE,167,1.0,9.0,66,0.00,,,0.00,meteohub,2013-03-30 22:52:00,
2013-03-30 18:57:00,48.4,37.9,30.07,South,184,2.0,9.0,67,0.00,,,0.00,meteohub,2013-03-30 22:57:00,
2013-03-30 19:02:00,48.0,37.9,30.07,SE,142,1.0,9.0,68,0.00,,,0.00,meteohub,2013-03-30 23:02:00,
2013-03-30 19:07:00,48.0,38.3,30.07,South,177,1.0,9.0,69,0.00,,,0.00,meteohub,2013-03-30 23:07:00,
2013-03-30 19:12:00,47.8,38.1,30.07,South,173,1.0,9.0,69,0.00,,,0.00,meteohub,2013-03-30 23:12:00,
2013-03-30 19:18:00,47.7,38.3,30.07,South,187,0.0,9.0,70,0.00,,,0.00,meteohub,2013-03-30 23:18:00,
2013-03-30 19:23:00,47.5,38.5,30.07,SSE,156,1.0,3.0,71,0.00,,,0.00,meteohub,2013-03-30 23:23:00,
2013-03-30 19:28:00,46.9,38.3,30.08,SE,143,2.0,3.0,72,0.00,,,0.00,meteohub,2013-03-30 23:28:00,
2013-03-30 19:34:00,46.8,38.5,30.08,ESE,118,4.0,4.0,73,0.00,,,0.00,meteohub,2013-03-30 23:34:00,
2013-03-30 19:39:00,46.8,38.8,30.08,ESE,113,4.0,4.0,74,0.00,,,0.00,meteohub,2013-03-30 23:39:00,
2013-03-30 19:44:00,46.6,38.7,30.08,South,173,0.0,7.0,74,0.00,,,0.00,meteohub,2013-03-30 23:44:00,
2013-03-30 19:49:00,46.6,38.1,30.08,South,176,2.0,7.0,72,0.00,,,0.00,meteohub,2013-03-30 23:49:00,
2013-03-30 19:55:00,46.8,37.6,30.08,SSW,193,0.0,7.0,70,0.00,,,0.00,meteohub,2013-03-30 23:55:00,
2013-03-30 20:00:00,46.8,37.9,30.08,SW,228,2.0,5.0,71,0.00,,,0.00,meteohub,2013-03-31 00:00:00,
2013-03-30 20:05:00,46.8,37.6,30.08,South,183,0.0,5.0,70,0.00,,,0.00,meteohub,2013-03-31 00:05:00,
2013-03-30 20:11:00,46.8,37.9,30.08,SSW,194,0.0,5.0,71,0.00,,,0.00,meteohub,2013-03-31 00:11:00,
2013-03-30 20:16:00,46.6,38.5,30.08,SSE,167,1.0,5.0,73,0.00,,,0.00,meteohub,2013-03-31 00:16:00,
2013-03-30 20:22:00,46.4,38.8,30.09,South,181,0.0,5.0,75,0.00,,,0.00,meteohub,2013-03-31 00:22:00,
2013-03-30 20:27:00,46.2,39.0,30.09,South,169,0.0,5.0,76,0.00,,,0.00,meteohub,2013-03-31 00:27:00,
2013-03-30 20:32:00,46.0,39.2,30.09,South,169,0.0,5.0,77,0.00,,,0.00,meteohub,2013-03-31 00:32:00,
2013-03-30 20:37:00,45.9,39.4,30.09,South,188,1.0,5.0,78,0.00,,,0.00,meteohub,2013-03-31 00:37:00,
2013-03-30 20:43:00,45.9,39.4,30.09,South,179,0.0,5.0,78,0.00,,,0.00,meteohub,2013-03-31 00:43:00,
2013-03-30 20:48:00,45.7,39.6,30.09,South,188,0.0,2.0,79,0.00,,,0.00,meteohub,2013-03-31 00:48:00,
2013-03-30 20:53:00,45.7,39.6,30.09,South,188,0.0,2.0,79,0.00,,,0.00,meteohub,2013-03-31 00:53:00,
2013-03-30 20:58:00,45.7,39.6,30.09,South,188,0.0,2.0,79,0.00,,,0.00,meteohub,2013-03-31 00:58:00,
2013-03-30 21:03:00,45.5,39.4,30.09,South,188,0.0,2.0,79,0.00,,,0.00,meteohub,2013-03-31 01:03:00,
2013-03-30 21:09:00,45.5,39.4,30.09,South,188,0.0,0.0,79,0.00,,,0.00,meteohub,2013-03-31 01:09:00,
2013-03-30 21:14:00,45.3,39.2,30.09,South,190,0.0,0.0,79,0.00,,,0.00,meteohub,2013-03-31 01:14:00,
2013-03-30 21:19:00,45.3,39.2,30.09,South,188,0.0,0.0,79,0.00,,,0.00,meteohub,2013-03-31 01:19:00,
2013-03-30 21:24:00,45.1,39.4,30.09,South,191,0.0,0.0,80,0.00,,,0.00,meteohub,2013-03-31 01:24:00,
2013-03-30 21:29:00,45.1,39.4,30.09,South,190,0.0,1.0,80,0.00,,,0.00,meteohub,2013-03-31 01:29:00,
2013-03-30 21:35:00,45.1,39.4,30.10,South,190,0.0,1.0,80,0.00,,,0.00,meteohub,2013-03-31 01:35:00,
2013-03-30 21:40:00,45.1,39.4,30.10,South,190,0.0,1.0,80,0.00,,,0.00,meteohub,2013-03-31 01:40:00,
2013-03-30 21:45:00,45.0,39.2,30.10,South,190,0.0,1.0,80,0.00,,,0.00,meteohub,2013-03-31 01:45:00,
2013-03-30 21:50:00,45.0,39.2,30.10,South,191,0.0,0.0,80,0.00,,,0.00,meteohub,2013-03-31 01:50:00,
2013-03-30 21:55:00,45.0,39.2,30.10,South,190,0.0,0.0,80,0.00,,,0.00,meteohub,2013-03-31 01:55:00,
2013-03-30 22:01:00,45.0,39.2,30.10,South,191,0.0,0.0,80,0.00,,,0.00,meteohub,2013-03-31 02:01:00,
2013-03-30 22:06:00,44.8,39.0,30.10,South,190,0.0,0.0,80,0.00,,,0.00,meteohub,2013-03-31 02:06:00,
2013-03-30 22:11:00,44.8,38.7,30.10,South,190,0.0,0.0,79,0.00,,,0.00,meteohub,2013-03-31 02:11:00,
2013-03-30 22:17:00,44.6,38.8,30.10,South,190,0.0,0.0,80,0.00,,,0.00,meteohub,2013-03-31 02:17:00,
2013-03-30 22:22:00,44.4,38.7,30.10,South,190,0.0,0.0,80,0.00,,,0.00,meteohub,2013-03-31 02:22:00,
2013-03-30 22:27:00,44.2,38.5,30.10,South,190,0.0,0.0,80,0.00,,,0.00,meteohub,2013-03-31 02:27:00,
2013-03-30 22:32:00,44.1,38.3,30.10,South,190,0.0,0.0,80,0.00,,,0.00,meteohub,2013-03-31 02:32:00,
2013-03-30 22:37:00,43.9,38.5,30.10,South,190,0.0,0.0,81,0.00,,,0.00,meteohub,2013-03-31 02:37:00,
2013-03-30 22:42:00,43.7,38.3,30.10,South,190,0.0,0.0,81,0.00,,,0.00,meteohub,2013-03-31 02:42:00,
2013-03-30 22:47:00,43.3,37.9,30.10,South,191,0.0,0.0,81,0.00,,,0.00,meteohub,2013-03-31 02:47:00,
2013-03-30 22:52:00,43.2,38.1,30.10,South,191,0.0,0.0,82,0.00,,,0.00,meteohub,2013-03-31 02:52:00,
2013-03-30 22:57:00,43.2,38.1,30.11,South,190,0.0,0.0,82,0.00,,,0.00,meteohub,2013-03-31 02:57:00,
2013-03-30 23:02:00,43.2,38.3,30.11,South,191,0.0,0.0,83,0.00,,,0.00,meteohub,2013-03-31 03:02:00,
2013-03-30 23:07:00,43.0,38.1,30.11,South,190,0.0,0.0,83,0.00,,,0.00,meteohub,2013-03-31 03:07:00,
2013-03-30 23:12:00,42.8,37.9,30.11,South,191,0.0,0.0,83,0.00,,,0.00,meteohub,2013-03-31 03:12:00,
2013-03-30 23:17:00,42.6,37.8,30.11,South,190,0.0,0.0,83,0.00,,,0.00,meteohub,2013-03-31 03:17:00,
2013-03-30 23:23:00,42.4,37.6,30.11,South,190,0.0,0.0,83,0.00,,,0.00,meteohub,2013-03-31 03:23:00,
2013-03-30 23:28:00,42.3,37.8,30.11,South,190,0.0,0.0,84,0.00,,,0.00,meteohub,2013-03-31 03:28:00,
2013-03-30 23:33:00,42.3,37.8,30.11,South,191,0.0,0.0,84,0.00,,,0.00,meteohub,2013-03-31 03:33:00,
2013-03-30 23:38:00,42.3,37.8,30.11,South,190,0.0,0.0,84,0.00,,,0.00,meteohub,2013-03-31 03:38:00,
2013-03-30 23:44:00,42.1,37.6,30.11,South,190,0.0,0.0,84,0.00,,,0.00,meteohub,2013-03-31 03:44:00,
2013-03-30 23:49:00,41.9,37.4,30.11,South,191,0.0,0.0,84,0.00,,,0.00,meteohub,2013-03-31 03:49:00,
2013-03-30 23:54:00,41.9,37.8,30.11,South,190,0.0,0.0,85,0.00,,,0.00,meteohub,2013-03-31 03:54:00,
2013-03-30 23:59:00,41.7,37.6,30.11,South,191,0.0,0.0,85,0.00,,,0.00,meteohub,2013-03-31 03:59:00,